Home > Weather > Salto > Past weeks

Flag for Uruguay Weather for the Past 2 Weeks in Salto, Uruguay

Now
86 °F

Clear.


Feels Like: 86 °F
Forecast: 72 / 98 °F
Wind: 5 mph from Northwest

Location: Buenos Aires Airport

Current Time: Feb 9, 2016 at 11:39:46 PM

Latest Report: Feb 9, 2016 at 10:00 PM


Visibility: 10 mi

Pressure: 29.89 "Hg

Humidity: 43%

Dew point: 61 °F

Location of SaltoLocation

Historic Weather in Salto — Graph

°F

Salto Temperature Yesterday

Maximum temperature yesterday: 81 °F (at 1:00 PM)
Minimum temperature yesterday: 75 °F (at 5:00 AM)
Average temperature yesterday: 78 °F

High & Low Weather Summary for the Past Weeks

 TemperatureHumidityPressure
High95 °F (Feb 9, 5:00 PM)94% (Feb 7, 9:00 PM)30.18 "Hg (Feb 7, 9:00 PM)
Low63 °F (Feb 1, 6:00 AM)24% (Jan 26, 7:00 PM)29.71 "Hg (Jan 27, 3:00 AM)
Average77 °F64%29.94 "Hg
* Reported Jan 25 10:00 PM — Feb 9 10:00 PM, Salto, Weather by CustomWeather, © 2016

Note: Actual official high and low records may vary slightly from our data, if they occured in-between our weather recording intervals... More about our weather records

Advertising

Salto Weather History for the Previous 24 Hours

 ConditionsComfort  
Time TempWeatherWind HumidityBarometerVisibility
10:00 PM
Tue, Feb 9
86 °FClear.5 mph43%29.89 "Hg10 mi
9:00 PM86 °FClear.6 mph35%29.89 "Hg10 mi
8:00 PM90 °FClear.9 mph36%29.86 "Hg10 mi
7:00 PM91 °FClear.12 mph30%29.86 "Hg10 mi
6:00 PM93 °FSunny.13 mph36%29.83 "Hg10 mi
5:00 PM95 °FPassing clouds.13 mph34%29.83 "HgN/A
4:00 PM93 °FPassing clouds.10 mph34%29.83 "HgN/A
3:00 PM93 °FPassing clouds.9 mph39%29.86 "HgN/A
2:00 PM91 °FPassing clouds.12 mph49%29.86 "HgN/A
1:00 PM88 °FPassing clouds.9 mph55%29.86 "HgN/A
12:00 PM86 °FPassing clouds.10 mph59%29.89 "HgN/A
11:00 AM82 °FPassing clouds.9 mph66%29.89 "HgN/A
10:00 AM77 °FSunny.9 mph74%29.89 "Hg10 mi
9:00 AM75 °FSunny.5 mph74%29.86 "Hg10 mi
8:00 AM73 °FPassing clouds.7 mph78%29.86 "HgN/A
7:00 AM70 °FSunny.5 mph88%29.86 "Hg10 mi
6:00 AM70 °FSunny.10 mph88%29.80 "Hg10 mi
5:00 AM70 °FClear.5 mph88%29.80 "Hg10 mi
4:00 AM70 °FClear.6 mph88%29.80 "Hg10 mi
3:00 AM70 °FRain. Passing clouds.17 mph88%29.86 "Hg4 mi
2:00 AM75 °FPassing clouds.10 mph83%29.83 "HgN/A
1:00 AM75 °FClear.6 mph83%29.83 "Hg10 mi
12:00 AM75 °FClear.6 mph83%29.80 "Hg10 mi
11:00 PM
Mon, Feb 8
75 °FPassing clouds.6 mph83%29.80 "HgN/A
Weather by CustomWeather, © 2016

See weather overviewHow to use our weather pages